<?xml version="1.0" encoding="utf-8"?>
<gpx xmlns:xsi="http://www.w3.org/2001/XMLSchema-instance" xmlns:xsd="http://www.w3.org/2001/XMLSchema" version="1.1" creator="Shapelink.com" xmlns="http://www.topografix.com/GPX/1/1" xmlns:gpxtpx="http://www.garmin.com/xmlschemas/TrackPointExtension/v1">
  <metadata>
    <name>Caminar 4.24 km, 2019-06-01</name>
    <desc></desc>
    <author><name>Urban Kalla</name></author> 
    <time>1970-01-01T01:00:00Z</time>
  </metadata>
  <trk>
    <name>Caminar 4.24 km, 2019-06-01</name>
    <trkseg>
      <trkpt lat="39.165178" lon="23.480891">
        <ele>45.5</ele>
        <time>1970-01-01T01:00:00Z</time>
      </trkpt>
      <trkpt lat="39.165135" lon="23.480891">
        <ele>43.75</ele>
        <time>1970-01-01T01:00:00Z</time>
      </trkpt>
      <trkpt lat="39.165084" lon="23.480789">
        <ele>43.75</ele>
        <time>1970-01-01T01:00:00Z</time>
      </trkpt>
      <trkpt lat="39.165061" lon="23.480709">
        <ele>43.75</ele>
        <time>1970-01-01T01:00:00Z</time>
      </trkpt>
      <trkpt lat="39.165122" lon="23.480696">
        <ele>43</ele>
        <time>1970-01-01T01:00:00Z</time>
      </trkpt>
      <trkpt lat="39.165154" lon="23.480644">
        <ele>43</ele>
        <time>1970-01-01T01:00:00Z</time>
      </trkpt>
      <trkpt lat="39.165053" lon="23.48075">
        <ele>43</ele>
        <time>1970-01-01T01:00:00Z</time>
      </trkpt>
      <trkpt lat="39.165001" lon="23.480833">
        <ele>43.25</ele>
        <time>1970-01-01T01:00:00Z</time>
      </trkpt>
      <trkpt lat="39.164962" lon="23.480927">
        <ele>43.5556</ele>
        <time>1970-01-01T01:00:00Z</time>
      </trkpt>
      <trkpt lat="39.164912" lon="23.481027">
        <ele>43.9</ele>
        <time>1970-01-01T01:00:00Z</time>
      </trkpt>
      <trkpt lat="39.164828" lon="23.481018">
        <ele>44.1818</ele>
        <time>1970-01-01T01:00:00Z</time>
      </trkpt>
      <trkpt lat="39.164858" lon="23.481115">
        <ele>44.5455</ele>
        <time>1970-01-01T01:00:00Z</time>
      </trkpt>
      <trkpt lat="39.164941" lon="23.481172">
        <ele>44.9091</ele>
        <time>1970-01-01T01:00:00Z</time>
      </trkpt>
      <trkpt lat="39.165015" lon="23.481225">
        <ele>45.3636</ele>
        <time>1970-01-01T01:00:00Z</time>
      </trkpt>
      <trkpt lat="39.165083" lon="23.48129">
        <ele>45.7273</ele>
        <time>1970-01-01T01:00:00Z</time>
      </trkpt>
      <trkpt lat="39.165145" lon="23.481367">
        <ele>46.0909</ele>
        <time>1970-01-01T01:00:00Z</time>
      </trkpt>
      <trkpt lat="39.165195" lon="23.481458">
        <ele>46.7273</ele>
        <time>1970-01-01T01:00:00Z</time>
      </trkpt>
      <trkpt lat="39.165267" lon="23.481518">
        <ele>47.3636</ele>
        <time>1970-01-01T01:00:00Z</time>
      </trkpt>
      <trkpt lat="39.165345" lon="23.481561">
        <ele>48.0909</ele>
        <time>1970-01-01T01:00:00Z</time>
      </trkpt>
      <trkpt lat="39.165377" lon="23.481666">
        <ele>48.9091</ele>
        <time>1970-01-01T01:00:00Z</time>
      </trkpt>
      <trkpt lat="39.165462" lon="23.481661">
        <ele>49.8182</ele>
        <time>1970-01-01T01:00:00Z</time>
      </trkpt>
      <trkpt lat="39.165541" lon="23.481621">
        <ele>50.8182</ele>
        <time>1970-01-01T01:00:00Z</time>
      </trkpt>
      <trkpt lat="39.165617" lon="23.481566">
        <ele>51.9091</ele>
        <time>1970-01-01T01:00:00Z</time>
      </trkpt>
      <trkpt lat="39.165706" lon="23.481533">
        <ele>53.0909</ele>
        <time>1970-01-01T01:00:00Z</time>
      </trkpt>
      <trkpt lat="39.165775" lon="23.481473">
        <ele>53.6</ele>
        <time>1970-01-01T01:00:00Z</time>
      </trkpt>
      <trkpt lat="39.165851" lon="23.481423">
        <ele>54.3333</ele>
        <time>1970-01-01T01:00:00Z</time>
      </trkpt>
      <trkpt lat="39.165916" lon="23.481356">
        <ele>55.25</ele>
        <time>1970-01-01T01:00:00Z</time>
      </trkpt>
      <trkpt lat="39.165998" lon="23.481323">
        <ele>56.1429</ele>
        <time>1970-01-01T01:00:00Z</time>
      </trkpt>
      <trkpt lat="39.166028" lon="23.481304">
        <ele>57</ele>
        <time>1970-01-01T01:00:00Z</time>
      </trkpt>
      <trkpt lat="39.166072" lon="23.481279">
        <ele>62.2857</ele>
        <time>1970-01-01T01:00:00Z</time>
      </trkpt>
      <trkpt lat="39.166153" lon="23.481246">
        <ele>62.2857</ele>
        <time>1970-01-01T01:00:00Z</time>
      </trkpt>
      <trkpt lat="39.166232" lon="23.481207">
        <ele>62.2857</ele>
        <time>1970-01-01T01:00:00Z</time>
      </trkpt>
      <trkpt lat="39.166322" lon="23.481176">
        <ele>62.2857</ele>
        <time>1970-01-01T01:00:00Z</time>
      </trkpt>
      <trkpt lat="39.166463" lon="23.481145">
        <ele>62.2857</ele>
        <time>1970-01-01T01:00:00Z</time>
      </trkpt>
      <trkpt lat="39.166505" lon="23.481144">
        <ele>62.6667</ele>
        <time>1970-01-01T01:00:00Z</time>
      </trkpt>
      <trkpt lat="39.166538" lon="23.48119">
        <ele>64</ele>
        <time>1970-01-01T01:00:00Z</time>
      </trkpt>
      <trkpt lat="39.166525" lon="23.481207">
        <ele>64</ele>
        <time>1970-01-01T01:00:00Z</time>
      </trkpt>
      <trkpt lat="39.166625" lon="23.481177">
        <ele>66.5714</ele>
        <time>1970-01-01T01:00:00Z</time>
      </trkpt>
      <trkpt lat="39.166712" lon="23.481181">
        <ele>66.625</ele>
        <time>1970-01-01T01:00:00Z</time>
      </trkpt>
      <trkpt lat="39.1668" lon="23.481174">
        <ele>66.5556</ele>
        <time>1970-01-01T01:00:00Z</time>
      </trkpt>
      <trkpt lat="39.166887" lon="23.481181">
        <ele>66.4</ele>
        <time>1970-01-01T01:00:00Z</time>
      </trkpt>
      <trkpt lat="39.166975" lon="23.48119">
        <ele>66.2727</ele>
        <time>1970-01-01T01:00:00Z</time>
      </trkpt>
      <trkpt lat="39.167061" lon="23.481207">
        <ele>66.1818</ele>
        <time>1970-01-01T01:00:00Z</time>
      </trkpt>
      <trkpt lat="39.167119" lon="23.481291">
        <ele>66.0909</ele>
        <time>1970-01-01T01:00:00Z</time>
      </trkpt>
      <trkpt lat="39.167192" lon="23.481344">
        <ele>66</ele>
        <time>1970-01-01T01:00:00Z</time>
      </trkpt>
      <trkpt lat="39.167263" lon="23.481397">
        <ele>65.8182</ele>
        <time>1970-01-01T01:00:00Z</time>
      </trkpt>
      <trkpt lat="39.167345" lon="23.481415">
        <ele>65.5455</ele>
        <time>1970-01-01T01:00:00Z</time>
      </trkpt>
      <trkpt lat="39.16742" lon="23.481472">
        <ele>65.1818</ele>
        <time>1970-01-01T01:00:00Z</time>
      </trkpt>
      <trkpt lat="39.167499" lon="23.481493">
        <ele>64.8182</ele>
        <time>1970-01-01T01:00:00Z</time>
      </trkpt>
      <trkpt lat="39.167585" lon="23.481513">
        <ele>64.5455</ele>
        <time>1970-01-01T01:00:00Z</time>
      </trkpt>
      <trkpt lat="39.167666" lon="23.481544">
        <ele>64.4545</ele>
        <time>1970-01-01T01:00:00Z</time>
      </trkpt>
      <trkpt lat="39.167734" lon="23.481601">
        <ele>64.5455</ele>
        <time>1970-01-01T01:00:00Z</time>
      </trkpt>
      <trkpt lat="39.167799" lon="23.481664">
        <ele>64.8182</ele>
        <time>1970-01-01T01:00:00Z</time>
      </trkpt>
      <trkpt lat="39.167866" lon="23.481728">
        <ele>65.2727</ele>
        <time>1970-01-01T01:00:00Z</time>
      </trkpt>
      <trkpt lat="39.16795" lon="23.481774">
        <ele>65.7273</ele>
        <time>1970-01-01T01:00:00Z</time>
      </trkpt>
      <trkpt lat="39.168028" lon="23.481818">
        <ele>66.2727</ele>
        <time>1970-01-01T01:00:00Z</time>
      </trkpt>
      <trkpt lat="39.168107" lon="23.481851">
        <ele>66.8182</ele>
        <time>1970-01-01T01:00:00Z</time>
      </trkpt>
      <trkpt lat="39.16819" lon="23.481897">
        <ele>67.5455</ele>
        <time>1970-01-01T01:00:00Z</time>
      </trkpt>
      <trkpt lat="39.168258" lon="23.481955">
        <ele>67.9</ele>
        <time>1970-01-01T01:00:00Z</time>
      </trkpt>
      <trkpt lat="39.168335" lon="23.482002">
        <ele>68.3333</ele>
        <time>1970-01-01T01:00:00Z</time>
      </trkpt>
      <trkpt lat="39.168418" lon="23.482003">
        <ele>68.875</ele>
        <time>1970-01-01T01:00:00Z</time>
      </trkpt>
      <trkpt lat="39.168499" lon="23.482042">
        <ele>69.4286</ele>
        <time>1970-01-01T01:00:00Z</time>
      </trkpt>
      <trkpt lat="39.168555" lon="23.482022">
        <ele>70</ele>
        <time>1970-01-01T01:00:00Z</time>
      </trkpt>
      <trkpt lat="39.168583" lon="23.482024">
        <ele>73.7143</ele>
        <time>1970-01-01T01:00:00Z</time>
      </trkpt>
      <trkpt lat="39.168665" lon="23.48205">
        <ele>74</ele>
        <time>1970-01-01T01:00:00Z</time>
      </trkpt>
      <trkpt lat="39.168745" lon="23.482059">
        <ele>74.4444</ele>
        <time>1970-01-01T01:00:00Z</time>
      </trkpt>
      <trkpt lat="39.168825" lon="23.482078">
        <ele>74.9</ele>
        <time>1970-01-01T01:00:00Z</time>
      </trkpt>
      <trkpt lat="39.16891" lon="23.482127">
        <ele>75.3636</ele>
        <time>1970-01-01T01:00:00Z</time>
      </trkpt>
      <trkpt lat="39.16899" lon="23.482103">
        <ele>76</ele>
        <time>1970-01-01T01:00:00Z</time>
      </trkpt>
      <trkpt lat="39.169078" lon="23.482139">
        <ele>76.6364</ele>
        <time>1970-01-01T01:00:00Z</time>
      </trkpt>
      <trkpt lat="39.169162" lon="23.482139">
        <ele>77</ele>
        <time>1970-01-01T01:00:00Z</time>
      </trkpt>
      <trkpt lat="39.169246" lon="23.482132">
        <ele>77.3333</ele>
        <time>1970-01-01T01:00:00Z</time>
      </trkpt>
      <trkpt lat="39.169337" lon="23.482108">
        <ele>77.75</ele>
        <time>1970-01-01T01:00:00Z</time>
      </trkpt>
      <trkpt lat="39.169423" lon="23.482138">
        <ele>78.4286</ele>
        <time>1970-01-01T01:00:00Z</time>
      </trkpt>
      <trkpt lat="39.169466" lon="23.482148">
        <ele>78.8333</ele>
        <time>1970-01-01T01:00:00Z</time>
      </trkpt>
      <trkpt lat="39.169504" lon="23.482193">
        <ele>77.75</ele>
        <time>1970-01-01T01:00:00Z</time>
      </trkpt>
      <trkpt lat="39.169586" lon="23.482207">
        <ele>77.75</ele>
        <time>1970-01-01T01:00:00Z</time>
      </trkpt>
      <trkpt lat="39.169608" lon="23.482207">
        <ele>77.75</ele>
        <time>1970-01-01T01:00:00Z</time>
      </trkpt>
      <trkpt lat="39.169625" lon="23.482113">
        <ele>86</ele>
        <time>1970-01-01T01:00:00Z</time>
      </trkpt>
      <trkpt lat="39.169678" lon="23.482008">
        <ele>86</ele>
        <time>1970-01-01T01:00:00Z</time>
      </trkpt>
      <trkpt lat="39.169743" lon="23.481943">
        <ele>86</ele>
        <time>1970-01-01T01:00:00Z</time>
      </trkpt>
      <trkpt lat="39.169829" lon="23.481915">
        <ele>86</ele>
        <time>1970-01-01T01:00:00Z</time>
      </trkpt>
      <trkpt lat="39.169845" lon="23.481929">
        <ele>86</ele>
        <time>1970-01-01T01:00:00Z</time>
      </trkpt>
      <trkpt lat="39.169908" lon="23.48188">
        <ele>88.2857</ele>
        <time>1970-01-01T01:00:00Z</time>
      </trkpt>
      <trkpt lat="39.169956" lon="23.481795">
        <ele>88.25</ele>
        <time>1970-01-01T01:00:00Z</time>
      </trkpt>
      <trkpt lat="39.170059" lon="23.481807">
        <ele>88.4444</ele>
        <time>1970-01-01T01:00:00Z</time>
      </trkpt>
      <trkpt lat="39.170145" lon="23.481828">
        <ele>88.7</ele>
        <time>1970-01-01T01:00:00Z</time>
      </trkpt>
      <trkpt lat="39.170197" lon="23.481734">
        <ele>88.9091</ele>
        <time>1970-01-01T01:00:00Z</time>
      </trkpt>
      <trkpt lat="39.170237" lon="23.48164">
        <ele>89.0909</ele>
        <time>1970-01-01T01:00:00Z</time>
      </trkpt>
      <trkpt lat="39.170297" lon="23.481557">
        <ele>89.2727</ele>
        <time>1970-01-01T01:00:00Z</time>
      </trkpt>
      <trkpt lat="39.170344" lon="23.481465">
        <ele>89.1818</ele>
        <time>1970-01-01T01:00:00Z</time>
      </trkpt>
      <trkpt lat="39.17034" lon="23.481359">
        <ele>89.3636</ele>
        <time>1970-01-01T01:00:00Z</time>
      </trkpt>
      <trkpt lat="39.170382" lon="23.48127">
        <ele>89.6364</ele>
        <time>1970-01-01T01:00:00Z</time>
      </trkpt>
      <trkpt lat="39.170446" lon="23.481193">
        <ele>89.8182</ele>
        <time>1970-01-01T01:00:00Z</time>
      </trkpt>
      <trkpt lat="39.170509" lon="23.481113">
        <ele>90</ele>
        <time>1970-01-01T01:00:00Z</time>
      </trkpt>
      <trkpt lat="39.170574" lon="23.481041">
        <ele>90.2222</ele>
        <time>1970-01-01T01:00:00Z</time>
      </trkpt>
      <trkpt lat="39.170652" lon="23.481002">
        <ele>90.25</ele>
        <time>1970-01-01T01:00:00Z</time>
      </trkpt>
      <trkpt lat="39.170729" lon="23.480958">
        <ele>90.1429</ele>
        <time>1970-01-01T01:00:00Z</time>
      </trkpt>
      <trkpt lat="39.170753" lon="23.480877">
        <ele>90</ele>
        <time>1970-01-01T01:00:00Z</time>
      </trkpt>
      <trkpt lat="39.170759" lon="23.48086">
        <ele>87</ele>
        <time>1970-01-01T01:00:00Z</time>
      </trkpt>
      <trkpt lat="39.170819" lon="23.480782">
        <ele>87</ele>
        <time>1970-01-01T01:00:00Z</time>
      </trkpt>
      <trkpt lat="39.1709" lon="23.480721">
        <ele>87</ele>
        <time>1970-01-01T01:00:00Z</time>
      </trkpt>
      <trkpt lat="39.170952" lon="23.480753">
        <ele>87</ele>
        <time>1970-01-01T01:00:00Z</time>
      </trkpt>
      <trkpt lat="39.170984" lon="23.480753">
        <ele>80.7143</ele>
        <time>1970-01-01T01:00:00Z</time>
      </trkpt>
      <trkpt lat="39.17107" lon="23.480739">
        <ele>79.75</ele>
        <time>1970-01-01T01:00:00Z</time>
      </trkpt>
      <trkpt lat="39.171155" lon="23.480735">
        <ele>78.8889</ele>
        <time>1970-01-01T01:00:00Z</time>
      </trkpt>
      <trkpt lat="39.171234" lon="23.480701">
        <ele>78.2</ele>
        <time>1970-01-01T01:00:00Z</time>
      </trkpt>
      <trkpt lat="39.17132" lon="23.480655">
        <ele>77.6364</ele>
        <time>1970-01-01T01:00:00Z</time>
      </trkpt>
      <trkpt lat="39.171409" lon="23.480638">
        <ele>76.5455</ele>
        <time>1970-01-01T01:00:00Z</time>
      </trkpt>
      <trkpt lat="39.17149" lon="23.480593">
        <ele>75.5455</ele>
        <time>1970-01-01T01:00:00Z</time>
      </trkpt>
      <trkpt lat="39.171569" lon="23.480547">
        <ele>74.7</ele>
        <time>1970-01-01T01:00:00Z</time>
      </trkpt>
      <trkpt lat="39.17163" lon="23.480476">
        <ele>73.8889</ele>
        <time>1970-01-01T01:00:00Z</time>
      </trkpt>
      <trkpt lat="39.171695" lon="23.480407">
        <ele>73.25</ele>
        <time>1970-01-01T01:00:00Z</time>
      </trkpt>
      <trkpt lat="39.171753" lon="23.480335">
        <ele>72.8571</ele>
        <time>1970-01-01T01:00:00Z</time>
      </trkpt>
      <trkpt lat="39.171788" lon="23.48027">
        <ele>72.6667</ele>
        <time>1970-01-01T01:00:00Z</time>
      </trkpt>
      <trkpt lat="39.171701" lon="23.480431">
        <ele>71.6667</ele>
        <time>1970-01-01T01:00:00Z</time>
      </trkpt>
      <trkpt lat="39.171639" lon="23.480434">
        <ele>71.6667</ele>
        <time>1970-01-01T01:00:00Z</time>
      </trkpt>
      <trkpt lat="39.171632" lon="23.480494">
        <ele>73.1429</ele>
        <time>1970-01-01T01:00:00Z</time>
      </trkpt>
      <trkpt lat="39.171585" lon="23.480583">
        <ele>73.25</ele>
        <time>1970-01-01T01:00:00Z</time>
      </trkpt>
      <trkpt lat="39.171532" lon="23.480662">
        <ele>73.4444</ele>
        <time>1970-01-01T01:00:00Z</time>
      </trkpt>
      <trkpt lat="39.171579" lon="23.48076">
        <ele>73.5</ele>
        <time>1970-01-01T01:00:00Z</time>
      </trkpt>
      <trkpt lat="39.171637" lon="23.480841">
        <ele>73.4545</ele>
        <time>1970-01-01T01:00:00Z</time>
      </trkpt>
      <trkpt lat="39.171722" lon="23.480814">
        <ele>73.6</ele>
        <time>1970-01-01T01:00:00Z</time>
      </trkpt>
      <trkpt lat="39.171808" lon="23.480765">
        <ele>73.7778</ele>
        <time>1970-01-01T01:00:00Z</time>
      </trkpt>
      <trkpt lat="39.171881" lon="23.480702">
        <ele>74</ele>
        <time>1970-01-01T01:00:00Z</time>
      </trkpt>
      <trkpt lat="39.171962" lon="23.48076">
        <ele>74</ele>
        <time>1970-01-01T01:00:00Z</time>
      </trkpt>
      <trkpt lat="39.172006" lon="23.480799">
        <ele>74</ele>
        <time>1970-01-01T01:00:00Z</time>
      </trkpt>
      <trkpt lat="39.172038" lon="23.4808">
        <ele>71</ele>
        <time>1970-01-01T01:00:00Z</time>
      </trkpt>
      <trkpt lat="39.172133" lon="23.480821">
        <ele>70.625</ele>
        <time>1970-01-01T01:00:00Z</time>
      </trkpt>
      <trkpt lat="39.172213" lon="23.480789">
        <ele>70.2222</ele>
        <time>1970-01-01T01:00:00Z</time>
      </trkpt>
      <trkpt lat="39.172296" lon="23.4808">
        <ele>69.8</ele>
        <time>1970-01-01T01:00:00Z</time>
      </trkpt>
      <trkpt lat="39.172358" lon="23.480867">
        <ele>69.3636</ele>
        <time>1970-01-01T01:00:00Z</time>
      </trkpt>
      <trkpt lat="39.172429" lon="23.480921">
        <ele>68.5455</ele>
        <time>1970-01-01T01:00:00Z</time>
      </trkpt>
      <trkpt lat="39.172483" lon="23.481007">
        <ele>67.7273</ele>
        <time>1970-01-01T01:00:00Z</time>
      </trkpt>
      <trkpt lat="39.172542" lon="23.4811">
        <ele>67.0909</ele>
        <time>1970-01-01T01:00:00Z</time>
      </trkpt>
      <trkpt lat="39.172568" lon="23.481208">
        <ele>66.5455</ele>
        <time>1970-01-01T01:00:00Z</time>
      </trkpt>
      <trkpt lat="39.172596" lon="23.481309">
        <ele>66.1</ele>
        <time>1970-01-01T01:00:00Z</time>
      </trkpt>
      <trkpt lat="39.172622" lon="23.481421">
        <ele>65.6667</ele>
        <time>1970-01-01T01:00:00Z</time>
      </trkpt>
      <trkpt lat="39.172632" lon="23.48153">
        <ele>65.25</ele>
        <time>1970-01-01T01:00:00Z</time>
      </trkpt>
      <trkpt lat="39.172671" lon="23.481634">
        <ele>64.8571</ele>
        <time>1970-01-01T01:00:00Z</time>
      </trkpt>
      <trkpt lat="39.172671" lon="23.481661">
        <ele>64.5</ele>
        <time>1970-01-01T01:00:00Z</time>
      </trkpt>
      <trkpt lat="39.172664" lon="23.481739">
        <ele>63</ele>
        <time>1970-01-01T01:00:00Z</time>
      </trkpt>
      <trkpt lat="39.172682" lon="23.481831">
        <ele>63</ele>
        <time>1970-01-01T01:00:00Z</time>
      </trkpt>
      <trkpt lat="39.17267" lon="23.481852">
        <ele>60.5</ele>
        <time>1970-01-01T01:00:00Z</time>
      </trkpt>
      <trkpt lat="39.172646" lon="23.481958">
        <ele>60.5</ele>
        <time>1970-01-01T01:00:00Z</time>
      </trkpt>
      <trkpt lat="39.172649" lon="23.482064">
        <ele>60.5</ele>
        <time>1970-01-01T01:00:00Z</time>
      </trkpt>
      <trkpt lat="39.172689" lon="23.482166">
        <ele>60.5</ele>
        <time>1970-01-01T01:00:00Z</time>
      </trkpt>
      <trkpt lat="39.172683" lon="23.482198">
        <ele>60.5</ele>
        <time>1970-01-01T01:00:00Z</time>
      </trkpt>
      <trkpt lat="39.172684" lon="23.482275">
        <ele>55.8</ele>
        <time>1970-01-01T01:00:00Z</time>
      </trkpt>
      <trkpt lat="39.172751" lon="23.482339">
        <ele>55.8</ele>
        <time>1970-01-01T01:00:00Z</time>
      </trkpt>
      <trkpt lat="39.172762" lon="23.48245">
        <ele>55.8</ele>
        <time>1970-01-01T01:00:00Z</time>
      </trkpt>
      <trkpt lat="39.172737" lon="23.482486">
        <ele>55.8</ele>
        <time>1970-01-01T01:00:00Z</time>
      </trkpt>
      <trkpt lat="39.172821" lon="23.482542">
        <ele>54</ele>
        <time>1970-01-01T01:00:00Z</time>
      </trkpt>
      <trkpt lat="39.172882" lon="23.482613">
        <ele>54</ele>
        <time>1970-01-01T01:00:00Z</time>
      </trkpt>
      <trkpt lat="39.172904" lon="23.482639">
        <ele>54</ele>
        <time>1970-01-01T01:00:00Z</time>
      </trkpt>
      <trkpt lat="39.172929" lon="23.482701">
        <ele>51.8571</ele>
        <time>1970-01-01T01:00:00Z</time>
      </trkpt>
      <trkpt lat="39.172978" lon="23.482785">
        <ele>51.25</ele>
        <time>1970-01-01T01:00:00Z</time>
      </trkpt>
      <trkpt lat="39.173054" lon="23.482837">
        <ele>50.5556</ele>
        <time>1970-01-01T01:00:00Z</time>
      </trkpt>
      <trkpt lat="39.173127" lon="23.482903">
        <ele>49.9</ele>
        <time>1970-01-01T01:00:00Z</time>
      </trkpt>
      <trkpt lat="39.173202" lon="23.482964">
        <ele>49.3636</ele>
        <time>1970-01-01T01:00:00Z</time>
      </trkpt>
      <trkpt lat="39.173172" lon="23.483065">
        <ele>48.5455</ele>
        <time>1970-01-01T01:00:00Z</time>
      </trkpt>
      <trkpt lat="39.173137" lon="23.48316">
        <ele>47.7273</ele>
        <time>1970-01-01T01:00:00Z</time>
      </trkpt>
      <trkpt lat="39.173123" lon="23.483263">
        <ele>47</ele>
        <time>1970-01-01T01:00:00Z</time>
      </trkpt>
      <trkpt lat="39.173133" lon="23.483375">
        <ele>46.2727</ele>
        <time>1970-01-01T01:00:00Z</time>
      </trkpt>
      <trkpt lat="39.173154" lon="23.483476">
        <ele>45.5455</ele>
        <time>1970-01-01T01:00:00Z</time>
      </trkpt>
      <trkpt lat="39.173203" lon="23.483572">
        <ele>44.8182</ele>
        <time>1970-01-01T01:00:00Z</time>
      </trkpt>
      <trkpt lat="39.173238" lon="23.483673">
        <ele>44.2727</ele>
        <time>1970-01-01T01:00:00Z</time>
      </trkpt>
      <trkpt lat="39.173262" lon="23.483773">
        <ele>43.8182</ele>
        <time>1970-01-01T01:00:00Z</time>
      </trkpt>
      <trkpt lat="39.173224" lon="23.48388">
        <ele>43.5455</ele>
        <time>1970-01-01T01:00:00Z</time>
      </trkpt>
      <trkpt lat="39.173164" lon="23.483952">
        <ele>43.2727</ele>
        <time>1970-01-01T01:00:00Z</time>
      </trkpt>
      <trkpt lat="39.173101" lon="23.484021">
        <ele>42.9091</ele>
        <time>1970-01-01T01:00:00Z</time>
      </trkpt>
      <trkpt lat="39.173034" lon="23.484082">
        <ele>42.6364</ele>
        <time>1970-01-01T01:00:00Z</time>
      </trkpt>
      <trkpt lat="39.172958" lon="23.484119">
        <ele>42.3636</ele>
        <time>1970-01-01T01:00:00Z</time>
      </trkpt>
      <trkpt lat="39.172892" lon="23.484191">
        <ele>42.0909</ele>
        <time>1970-01-01T01:00:00Z</time>
      </trkpt>
      <trkpt lat="39.172811" lon="23.48422">
        <ele>41.8182</ele>
        <time>1970-01-01T01:00:00Z</time>
      </trkpt>
      <trkpt lat="39.172734" lon="23.484269">
        <ele>41.6364</ele>
        <time>1970-01-01T01:00:00Z</time>
      </trkpt>
      <trkpt lat="39.172675" lon="23.484341">
        <ele>41.5455</ele>
        <time>1970-01-01T01:00:00Z</time>
      </trkpt>
      <trkpt lat="39.172611" lon="23.484408">
        <ele>41.6364</ele>
        <time>1970-01-01T01:00:00Z</time>
      </trkpt>
      <trkpt lat="39.172539" lon="23.484471">
        <ele>41.9091</ele>
        <time>1970-01-01T01:00:00Z</time>
      </trkpt>
      <trkpt lat="39.172476" lon="23.484546">
        <ele>42.0909</ele>
        <time>1970-01-01T01:00:00Z</time>
      </trkpt>
      <trkpt lat="39.172432" lon="23.484641">
        <ele>42.3636</ele>
        <time>1970-01-01T01:00:00Z</time>
      </trkpt>
      <trkpt lat="39.17244" lon="23.48475">
        <ele>42.6364</ele>
        <time>1970-01-01T01:00:00Z</time>
      </trkpt>
      <trkpt lat="39.172435" lon="23.484858">
        <ele>42.7273</ele>
        <time>1970-01-01T01:00:00Z</time>
      </trkpt>
      <trkpt lat="39.172383" lon="23.484946">
        <ele>42.7273</ele>
        <time>1970-01-01T01:00:00Z</time>
      </trkpt>
      <trkpt lat="39.172296" lon="23.484966">
        <ele>42.9</ele>
        <time>1970-01-01T01:00:00Z</time>
      </trkpt>
      <trkpt lat="39.172211" lon="23.484989">
        <ele>43.1111</ele>
        <time>1970-01-01T01:00:00Z</time>
      </trkpt>
      <trkpt lat="39.172123" lon="23.485013">
        <ele>43.25</ele>
        <time>1970-01-01T01:00:00Z</time>
      </trkpt>
      <trkpt lat="39.172041" lon="23.485037">
        <ele>43.2857</ele>
        <time>1970-01-01T01:00:00Z</time>
      </trkpt>
      <trkpt lat="39.172016" lon="23.485042">
        <ele>43.1667</ele>
        <time>1970-01-01T01:00:00Z</time>
      </trkpt>
      <trkpt lat="39.171958" lon="23.485036">
        <ele>41</ele>
        <time>1970-01-01T01:00:00Z</time>
      </trkpt>
      <trkpt lat="39.171956" lon="23.485035">
        <ele>41</ele>
        <time>1970-01-01T01:00:00Z</time>
      </trkpt>
      <trkpt lat="39.171865" lon="23.485033">
        <ele>37.2</ele>
        <time>1970-01-01T01:00:00Z</time>
      </trkpt>
      <trkpt lat="39.171785" lon="23.485008">
        <ele>37.2</ele>
        <time>1970-01-01T01:00:00Z</time>
      </trkpt>
      <trkpt lat="39.171706" lon="23.484981">
        <ele>37.2</ele>
        <time>1970-01-01T01:00:00Z</time>
      </trkpt>
      <trkpt lat="39.171702" lon="23.484977">
        <ele>37.2</ele>
        <time>1970-01-01T01:00:00Z</time>
      </trkpt>
      <trkpt lat="39.17163" lon="23.484936">
        <ele>34</ele>
        <time>1970-01-01T01:00:00Z</time>
      </trkpt>
      <trkpt lat="39.171614" lon="23.484921">
        <ele>34</ele>
        <time>1970-01-01T01:00:00Z</time>
      </trkpt>
      <trkpt lat="39.171545" lon="23.484911">
        <ele>32.8571</ele>
        <time>1970-01-01T01:00:00Z</time>
      </trkpt>
      <trkpt lat="39.171456" lon="23.484882">
        <ele>32.8571</ele>
        <time>1970-01-01T01:00:00Z</time>
      </trkpt>
      <trkpt lat="39.171377" lon="23.484844">
        <ele>32.8571</ele>
        <time>1970-01-01T01:00:00Z</time>
      </trkpt>
      <trkpt lat="39.171309" lon="23.48477">
        <ele>32.8571</ele>
        <time>1970-01-01T01:00:00Z</time>
      </trkpt>
      <trkpt lat="39.171228" lon="23.484747">
        <ele>32.8571</ele>
        <time>1970-01-01T01:00:00Z</time>
      </trkpt>
      <trkpt lat="39.171175" lon="23.484729">
        <ele>32.6667</ele>
        <time>1970-01-01T01:00:00Z</time>
      </trkpt>
      <trkpt lat="39.171144" lon="23.484736">
        <ele>32.2857</ele>
        <time>1970-01-01T01:00:00Z</time>
      </trkpt>
      <trkpt lat="39.171062" lon="23.484758">
        <ele>32.25</ele>
        <time>1970-01-01T01:00:00Z</time>
      </trkpt>
      <trkpt lat="39.170984" lon="23.484786">
        <ele>32.1111</ele>
        <time>1970-01-01T01:00:00Z</time>
      </trkpt>
      <trkpt lat="39.170907" lon="23.484821">
        <ele>32</ele>
        <time>1970-01-01T01:00:00Z</time>
      </trkpt>
      <trkpt lat="39.170821" lon="23.484839">
        <ele>31.9091</ele>
        <time>1970-01-01T01:00:00Z</time>
      </trkpt>
      <trkpt lat="39.17074" lon="23.484816">
        <ele>31.7273</ele>
        <time>1970-01-01T01:00:00Z</time>
      </trkpt>
      <trkpt lat="39.170654" lon="23.484827">
        <ele>31.5455</ele>
        <time>1970-01-01T01:00:00Z</time>
      </trkpt>
      <trkpt lat="39.170564" lon="23.484807">
        <ele>31.2727</ele>
        <time>1970-01-01T01:00:00Z</time>
      </trkpt>
      <trkpt lat="39.170478" lon="23.484808">
        <ele>30.9091</ele>
        <time>1970-01-01T01:00:00Z</time>
      </trkpt>
      <trkpt lat="39.170396" lon="23.484792">
        <ele>30.4545</ele>
        <time>1970-01-01T01:00:00Z</time>
      </trkpt>
      <trkpt lat="39.170312" lon="23.484787">
        <ele>29.9091</ele>
        <time>1970-01-01T01:00:00Z</time>
      </trkpt>
      <trkpt lat="39.17023" lon="23.484758">
        <ele>29.3636</ele>
        <time>1970-01-01T01:00:00Z</time>
      </trkpt>
      <trkpt lat="39.170139" lon="23.484733">
        <ele>28.7273</ele>
        <time>1970-01-01T01:00:00Z</time>
      </trkpt>
      <trkpt lat="39.170053" lon="23.484716">
        <ele>28.0909</ele>
        <time>1970-01-01T01:00:00Z</time>
      </trkpt>
      <trkpt lat="39.16997" lon="23.484695">
        <ele>27.4545</ele>
        <time>1970-01-01T01:00:00Z</time>
      </trkpt>
      <trkpt lat="39.169883" lon="23.484672">
        <ele>26.7273</ele>
        <time>1970-01-01T01:00:00Z</time>
      </trkpt>
      <trkpt lat="39.169802" lon="23.484658">
        <ele>26.0909</ele>
        <time>1970-01-01T01:00:00Z</time>
      </trkpt>
      <trkpt lat="39.169724" lon="23.484625">
        <ele>25.4545</ele>
        <time>1970-01-01T01:00:00Z</time>
      </trkpt>
      <trkpt lat="39.16964" lon="23.484589">
        <ele>24.9091</ele>
        <time>1970-01-01T01:00:00Z</time>
      </trkpt>
      <trkpt lat="39.169564" lon="23.48455">
        <ele>24.6</ele>
        <time>1970-01-01T01:00:00Z</time>
      </trkpt>
      <trkpt lat="39.169479" lon="23.484559">
        <ele>24.2222</ele>
        <time>1970-01-01T01:00:00Z</time>
      </trkpt>
      <trkpt lat="39.1694" lon="23.484582">
        <ele>23.875</ele>
        <time>1970-01-01T01:00:00Z</time>
      </trkpt>
      <trkpt lat="39.169318" lon="23.484603">
        <ele>23.5714</ele>
        <time>1970-01-01T01:00:00Z</time>
      </trkpt>
      <trkpt lat="39.169244" lon="23.484636">
        <ele>23.3333</ele>
        <time>1970-01-01T01:00:00Z</time>
      </trkpt>
      <trkpt lat="39.169237" lon="23.484643">
        <ele>21.4286</ele>
        <time>1970-01-01T01:00:00Z</time>
      </trkpt>
      <trkpt lat="39.169146" lon="23.484649">
        <ele>21.25</ele>
        <time>1970-01-01T01:00:00Z</time>
      </trkpt>
      <trkpt lat="39.169061" lon="23.484675">
        <ele>21.1111</ele>
        <time>1970-01-01T01:00:00Z</time>
      </trkpt>
      <trkpt lat="39.168986" lon="23.484718">
        <ele>21</ele>
        <time>1970-01-01T01:00:00Z</time>
      </trkpt>
      <trkpt lat="39.168909" lon="23.484759">
        <ele>21</ele>
        <time>1970-01-01T01:00:00Z</time>
      </trkpt>
      <trkpt lat="39.168831" lon="23.484815">
        <ele>20.7778</ele>
        <time>1970-01-01T01:00:00Z</time>
      </trkpt>
      <trkpt lat="39.168764" lon="23.484879">
        <ele>20.5</ele>
        <time>1970-01-01T01:00:00Z</time>
      </trkpt>
      <trkpt lat="39.168711" lon="23.484962">
        <ele>20.2857</ele>
        <time>1970-01-01T01:00:00Z</time>
      </trkpt>
      <trkpt lat="39.168676" lon="23.484937">
        <ele>20.1667</ele>
        <time>1970-01-01T01:00:00Z</time>
      </trkpt>
      <trkpt lat="39.16863" lon="23.48498">
        <ele>19.5714</ele>
        <time>1970-01-01T01:00:00Z</time>
      </trkpt>
      <trkpt lat="39.168554" lon="23.485015">
        <ele>19.5714</ele>
        <time>1970-01-01T01:00:00Z</time>
      </trkpt>
      <trkpt lat="39.168484" lon="23.485086">
        <ele>19.5714</ele>
        <time>1970-01-01T01:00:00Z</time>
      </trkpt>
      <trkpt lat="39.168424" lon="23.485165">
        <ele>19.5714</ele>
        <time>1970-01-01T01:00:00Z</time>
      </trkpt>
      <trkpt lat="39.16834" lon="23.485201">
        <ele>19.5714</ele>
        <time>1970-01-01T01:00:00Z</time>
      </trkpt>
      <trkpt lat="39.168343" lon="23.485193">
        <ele>19.5</ele>
        <time>1970-01-01T01:00:00Z</time>
      </trkpt>
      <trkpt lat="39.168268" lon="23.485258">
        <ele>18.2857</ele>
        <time>1970-01-01T01:00:00Z</time>
      </trkpt>
      <trkpt lat="39.168192" lon="23.485196">
        <ele>18.2857</ele>
        <time>1970-01-01T01:00:00Z</time>
      </trkpt>
      <trkpt lat="39.168104" lon="23.485196">
        <ele>18.2857</ele>
        <time>1970-01-01T01:00:00Z</time>
      </trkpt>
      <trkpt lat="39.168023" lon="23.485178">
        <ele>18.2857</ele>
        <time>1970-01-01T01:00:00Z</time>
      </trkpt>
      <trkpt lat="39.167988" lon="23.485275">
        <ele>18.2857</ele>
        <time>1970-01-01T01:00:00Z</time>
      </trkpt>
      <trkpt lat="39.167953" lon="23.485254">
        <ele>18.1667</ele>
        <time>1970-01-01T01:00:00Z</time>
      </trkpt>
      <trkpt lat="39.167872" lon="23.485313">
        <ele>16.5714</ele>
        <time>1970-01-01T01:00:00Z</time>
      </trkpt>
      <trkpt lat="39.167862" lon="23.485164">
        <ele>16.5</ele>
        <time>1970-01-01T01:00:00Z</time>
      </trkpt>
      <trkpt lat="39.167811" lon="23.485065">
        <ele>16.4444</ele>
        <time>1970-01-01T01:00:00Z</time>
      </trkpt>
      <trkpt lat="39.167708" lon="23.485026">
        <ele>16.3</ele>
        <time>1970-01-01T01:00:00Z</time>
      </trkpt>
      <trkpt lat="39.167625" lon="23.485018">
        <ele>16.2727</ele>
        <time>1970-01-01T01:00:00Z</time>
      </trkpt>
      <trkpt lat="39.167393" lon="23.485117">
        <ele>16</ele>
        <time>1970-01-01T01:00:00Z</time>
      </trkpt>
      <trkpt lat="39.167421" lon="23.485241">
        <ele>15.9091</ele>
        <time>1970-01-01T01:00:00Z</time>
      </trkpt>
      <trkpt lat="39.167661" lon="23.485495">
        <ele>15.8182</ele>
        <time>1970-01-01T01:00:00Z</time>
      </trkpt>
      <trkpt lat="39.167614" lon="23.48581">
        <ele>15.8182</ele>
        <time>1970-01-01T01:00:00Z</time>
      </trkpt>
      <trkpt lat="39.16764" lon="23.485568">
        <ele>15.7273</ele>
        <time>1970-01-01T01:00:00Z</time>
      </trkpt>
      <trkpt lat="39.167578" lon="23.485826">
        <ele>15.8182</ele>
        <time>1970-01-01T01:00:00Z</time>
      </trkpt>
      <trkpt lat="39.167587" lon="23.485497">
        <ele>15.9091</ele>
        <time>1970-01-01T01:00:00Z</time>
      </trkpt>
      <trkpt lat="39.167646" lon="23.485374">
        <ele>15.9091</ele>
        <time>1970-01-01T01:00:00Z</time>
      </trkpt>
      <trkpt lat="39.167665" lon="23.485271">
        <ele>15.9091</ele>
        <time>1970-01-01T01:00:00Z</time>
      </trkpt>
      <trkpt lat="39.167621" lon="23.485177">
        <ele>16.0909</ele>
        <time>1970-01-01T01:00:00Z</time>
      </trkpt>
      <trkpt lat="39.167743" lon="23.485331">
        <ele>16.0909</ele>
        <time>1970-01-01T01:00:00Z</time>
      </trkpt>
      <trkpt lat="39.167662" lon="23.485365">
        <ele>16.1818</ele>
        <time>1970-01-01T01:00:00Z</time>
      </trkpt>
      <trkpt lat="39.167573" lon="23.485367">
        <ele>16.0909</ele>
        <time>1970-01-01T01:00:00Z</time>
      </trkpt>
      <trkpt lat="39.167632" lon="23.485293">
        <ele>16</ele>
        <time>1970-01-01T01:00:00Z</time>
      </trkpt>
      <trkpt lat="39.167904" lon="23.485418">
        <ele>15.8182</ele>
        <time>1970-01-01T01:00:00Z</time>
      </trkpt>
      <trkpt lat="39.167614" lon="23.485184">
        <ele>15.7273</ele>
        <time>1970-01-01T01:00:00Z</time>
      </trkpt>
      <trkpt lat="39.167502" lon="23.485082">
        <ele>15.5455</ele>
        <time>1970-01-01T01:00:00Z</time>
      </trkpt>
      <trkpt lat="39.167466" lon="23.484988">
        <ele>15.4545</ele>
        <time>1970-01-01T01:00:00Z</time>
      </trkpt>
      <trkpt lat="39.167252" lon="23.485147">
        <ele>15.4545</ele>
        <time>1970-01-01T01:00:00Z</time>
      </trkpt>
      <trkpt lat="39.167409" lon="23.485051">
        <ele>15.4545</ele>
        <time>1970-01-01T01:00:00Z</time>
      </trkpt>
      <trkpt lat="39.167413" lon="23.484944">
        <ele>15.4545</ele>
        <time>1970-01-01T01:00:00Z</time>
      </trkpt>
      <trkpt lat="39.167598" lon="23.484774">
        <ele>15.5455</ele>
        <time>1970-01-01T01:00:00Z</time>
      </trkpt>
      <trkpt lat="39.16757" lon="23.484878">
        <ele>15.8182</ele>
        <time>1970-01-01T01:00:00Z</time>
      </trkpt>
      <trkpt lat="39.167571" lon="23.485012">
        <ele>16.0909</ele>
        <time>1970-01-01T01:00:00Z</time>
      </trkpt>
      <trkpt lat="39.167648" lon="23.485063">
        <ele>16.3636</ele>
        <time>1970-01-01T01:00:00Z</time>
      </trkpt>
      <trkpt lat="39.167748" lon="23.485026">
        <ele>16.6364</ele>
        <time>1970-01-01T01:00:00Z</time>
      </trkpt>
      <trkpt lat="39.167843" lon="23.485143">
        <ele>16.8</ele>
        <time>1970-01-01T01:00:00Z</time>
      </trkpt>
      <trkpt lat="39.167918" lon="23.485079">
        <ele>17</ele>
        <time>1970-01-01T01:00:00Z</time>
      </trkpt>
      <trkpt lat="39.168006" lon="23.48508">
        <ele>17.25</ele>
        <time>1970-01-01T01:00:00Z</time>
      </trkpt>
      <trkpt lat="39.167939" lon="23.485145">
        <ele>17.4286</ele>
        <time>1970-01-01T01:00:00Z</time>
      </trkpt>
      <trkpt lat="39.16792" lon="23.485171">
        <ele>17.6667</ele>
        <time>1970-01-01T01:00:00Z</time>
      </trkpt>
      <trkpt lat="39.167926" lon="23.485253">
        <ele>17.6667</ele>
        <time>1970-01-01T01:00:00Z</time>
      </trkpt>
      <trkpt lat="39.167913" lon="23.485263">
        <ele>17.6667</ele>
        <time>1970-01-01T01:00:00Z</time>
      </trkpt>
      <trkpt lat="39.16785" lon="23.48521">
        <ele>16.1429</ele>
        <time>1970-01-01T01:00:00Z</time>
      </trkpt>
      <trkpt lat="39.167767" lon="23.485165">
        <ele>16</ele>
        <time>1970-01-01T01:00:00Z</time>
      </trkpt>
      <trkpt lat="39.167682" lon="23.485135">
        <ele>15.8889</ele>
        <time>1970-01-01T01:00:00Z</time>
      </trkpt>
      <trkpt lat="39.167601" lon="23.485105">
        <ele>15.8</ele>
        <time>1970-01-01T01:00:00Z</time>
      </trkpt>
      <trkpt lat="39.167521" lon="23.485059">
        <ele>15.7273</ele>
        <time>1970-01-01T01:00:00Z</time>
      </trkpt>
      <trkpt lat="39.167442" lon="23.485008">
        <ele>15.5455</ele>
        <time>1970-01-01T01:00:00Z</time>
      </trkpt>
      <trkpt lat="39.167362" lon="23.484967">
        <ele>15.3636</ele>
        <time>1970-01-01T01:00:00Z</time>
      </trkpt>
      <trkpt lat="39.167274" lon="23.484953">
        <ele>15.0909</ele>
        <time>1970-01-01T01:00:00Z</time>
      </trkpt>
      <trkpt lat="39.167184" lon="23.484969">
        <ele>14.9091</ele>
        <time>1970-01-01T01:00:00Z</time>
      </trkpt>
      <trkpt lat="39.167102" lon="23.484975">
        <ele>14.6364</ele>
        <time>1970-01-01T01:00:00Z</time>
      </trkpt>
      <trkpt lat="39.167014" lon="23.485004">
        <ele>14.4545</ele>
        <time>1970-01-01T01:00:00Z</time>
      </trkpt>
      <trkpt lat="39.166932" lon="23.485049">
        <ele>14.2727</ele>
        <time>1970-01-01T01:00:00Z</time>
      </trkpt>
      <trkpt lat="39.166855" lon="23.48509">
        <ele>14</ele>
        <time>1970-01-01T01:00:00Z</time>
      </trkpt>
      <trkpt lat="39.166772" lon="23.485135">
        <ele>13.7273</ele>
        <time>1970-01-01T01:00:00Z</time>
      </trkpt>
      <trkpt lat="39.166691" lon="23.485174">
        <ele>13.4545</ele>
        <time>1970-01-01T01:00:00Z</time>
      </trkpt>
      <trkpt lat="39.166616" lon="23.485224">
        <ele>13.0909</ele>
        <time>1970-01-01T01:00:00Z</time>
      </trkpt>
      <trkpt lat="39.166532" lon="23.485256">
        <ele>12.7273</ele>
        <time>1970-01-01T01:00:00Z</time>
      </trkpt>
      <trkpt lat="39.166449" lon="23.485271">
        <ele>12.3636</ele>
        <time>1970-01-01T01:00:00Z</time>
      </trkpt>
      <trkpt lat="39.166364" lon="23.48531">
        <ele>12</ele>
        <time>1970-01-01T01:00:00Z</time>
      </trkpt>
      <trkpt lat="39.166279" lon="23.485307">
        <ele>11.6364</ele>
        <time>1970-01-01T01:00:00Z</time>
      </trkpt>
      <trkpt lat="39.166195" lon="23.485347">
        <ele>11.3636</ele>
        <time>1970-01-01T01:00:00Z</time>
      </trkpt>
      <trkpt lat="39.166118" lon="23.485391">
        <ele>11.0909</ele>
        <time>1970-01-01T01:00:00Z</time>
      </trkpt>
      <trkpt lat="39.166035" lon="23.485389">
        <ele>10.8182</ele>
        <time>1970-01-01T01:00:00Z</time>
      </trkpt>
      <trkpt lat="39.165949" lon="23.485391">
        <ele>10.6364</ele>
        <time>1970-01-01T01:00:00Z</time>
      </trkpt>
      <trkpt lat="39.165899" lon="23.485475">
        <ele>10.5455</ele>
        <time>1970-01-01T01:00:00Z</time>
      </trkpt>
      <trkpt lat="39.165825" lon="23.48554">
        <ele>10.4545</ele>
        <time>1970-01-01T01:00:00Z</time>
      </trkpt>
      <trkpt lat="39.165742" lon="23.48556">
        <ele>10.5455</ele>
        <time>1970-01-01T01:00:00Z</time>
      </trkpt>
      <trkpt lat="39.165672" lon="23.485617">
        <ele>10.6364</ele>
        <time>1970-01-01T01:00:00Z</time>
      </trkpt>
      <trkpt lat="39.165603" lon="23.485685">
        <ele>10.8182</ele>
        <time>1970-01-01T01:00:00Z</time>
      </trkpt>
      <trkpt lat="39.16553" lon="23.485747">
        <ele>11.0909</ele>
        <time>1970-01-01T01:00:00Z</time>
      </trkpt>
      <trkpt lat="39.165463" lon="23.485813">
        <ele>11.2727</ele>
        <time>1970-01-01T01:00:00Z</time>
      </trkpt>
      <trkpt lat="39.165402" lon="23.48589">
        <ele>11.4545</ele>
        <time>1970-01-01T01:00:00Z</time>
      </trkpt>
      <trkpt lat="39.165328" lon="23.485939">
        <ele>11.6364</ele>
        <time>1970-01-01T01:00:00Z</time>
      </trkpt>
      <trkpt lat="39.16528" lon="23.486033">
        <ele>11.8182</ele>
        <time>1970-01-01T01:00:00Z</time>
      </trkpt>
      <trkpt lat="39.165208" lon="23.48608">
        <ele>11.9091</ele>
        <time>1970-01-01T01:00:00Z</time>
      </trkpt>
      <trkpt lat="39.165151" lon="23.486165">
        <ele>11.9091</ele>
        <time>1970-01-01T01:00:00Z</time>
      </trkpt>
      <trkpt lat="39.165077" lon="23.486242">
        <ele>11.9091</ele>
        <time>1970-01-01T01:00:00Z</time>
      </trkpt>
      <trkpt lat="39.165005" lon="23.486305">
        <ele>11.8182</ele>
        <time>1970-01-01T01:00:00Z</time>
      </trkpt>
      <trkpt lat="39.164924" lon="23.486311">
        <ele>11.7273</ele>
        <time>1970-01-01T01:00:00Z</time>
      </trkpt>
      <trkpt lat="39.164854" lon="23.48638">
        <ele>11.4545</ele>
        <time>1970-01-01T01:00:00Z</time>
      </trkpt>
      <trkpt lat="39.164782" lon="23.486439">
        <ele>11.1818</ele>
        <time>1970-01-01T01:00:00Z</time>
      </trkpt>
      <trkpt lat="39.164689" lon="23.486458">
        <ele>11</ele>
        <time>1970-01-01T01:00:00Z</time>
      </trkpt>
      <trkpt lat="39.164599" lon="23.486496">
        <ele>10.8182</ele>
        <time>1970-01-01T01:00:00Z</time>
      </trkpt>
      <trkpt lat="39.164516" lon="23.486477">
        <ele>10.6364</ele>
        <time>1970-01-01T01:00:00Z</time>
      </trkpt>
      <trkpt lat="39.164454" lon="23.486554">
        <ele>10.4545</ele>
        <time>1970-01-01T01:00:00Z</time>
      </trkpt>
      <trkpt lat="39.16437" lon="23.486567">
        <ele>10.3636</ele>
        <time>1970-01-01T01:00:00Z</time>
      </trkpt>
      <trkpt lat="39.164297" lon="23.486626">
        <ele>10.2727</ele>
        <time>1970-01-01T01:00:00Z</time>
      </trkpt>
      <trkpt lat="39.164215" lon="23.486612">
        <ele>10.2</ele>
        <time>1970-01-01T01:00:00Z</time>
      </trkpt>
      <trkpt lat="39.164131" lon="23.486632">
        <ele>10.1111</ele>
        <time>1970-01-01T01:00:00Z</time>
      </trkpt>
      <trkpt lat="39.164057" lon="23.486677">
        <ele>10</ele>
        <time>1970-01-01T01:00:00Z</time>
      </trkpt>
      <trkpt lat="39.163977" lon="23.486727">
        <ele>10</ele>
        <time>1970-01-01T01:00:00Z</time>
      </trkpt>
      <trkpt lat="39.163933" lon="23.486737">
        <ele>10</ele>
        <time>1970-01-01T01:00:00Z</time>
      </trkpt>
      <trkpt lat="39.163901" lon="23.48677">
        <ele>10</ele>
        <time>1970-01-01T01:00:00Z</time>
      </trkpt>
      <trkpt lat="39.163884" lon="23.48679">
        <ele>10</ele>
        <time>1970-01-01T01:00:00Z</time>
      </trkpt>
      <trkpt lat="39.163927" lon="23.486661">
        <ele>10</ele>
        <time>1970-01-01T01:00:00Z</time>
      </trkpt>
      <trkpt lat="39.163948" lon="23.486559">
        <ele>10</ele>
        <time>1970-01-01T01:00:00Z</time>
      </trkpt>
      <trkpt lat="39.163992" lon="23.486556">
        <ele>10</ele>
        <time>1970-01-01T01:00:00Z</time>
      </trkpt>
      <trkpt lat="39.16403" lon="23.486566">
        <ele>10</ele>
        <time>1970-01-01T01:00:00Z</time>
      </trkpt>
      <trkpt lat="39.164044" lon="23.486575">
        <ele>10</ele>
        <time>1970-01-01T01:00:00Z</time>
      </trkpt>
      <trkpt lat="39.164112" lon="23.486557">
        <ele>10</ele>
        <time>1970-01-01T01:00:00Z</time>
      </trkpt>
      <trkpt lat="39.164114" lon="23.486556">
        <ele>10</ele>
        <time>1970-01-01T01:00:00Z</time>
      </trkpt>
      <trkpt lat="39.164031" lon="23.48658">
        <ele>10</ele>
        <time>1970-01-01T01:00:00Z</time>
      </trkpt>
      <trkpt lat="39.164041" lon="23.486561">
        <ele>10</ele>
        <time>1970-01-01T01:00:00Z</time>
      </trkpt>
      <trkpt lat="39.164109" lon="23.486609">
        <ele>10</ele>
        <time>1970-01-01T01:00:00Z</time>
      </trkpt>
      <trkpt lat="39.164097" lon="23.486607">
        <ele>10</ele>
        <time>1970-01-01T01:00:00Z</time>
      </trkpt>
      <trkpt lat="39.164035" lon="23.486565">
        <ele>10</ele>
        <time>1970-01-01T01:00:00Z</time>
      </trkpt>
      <trkpt lat="39.163959" lon="23.486537">
        <ele>10</ele>
        <time>1970-01-01T01:00:00Z</time>
      </trkpt>
      <trkpt lat="39.163975" lon="23.486639">
        <ele>10</ele>
        <time>1970-01-01T01:00:00Z</time>
      </trkpt>
      <trkpt lat="39.163938" lon="23.486663">
        <ele>10</ele>
        <time>1970-01-01T01:00:00Z</time>
      </trkpt>
      <trkpt lat="39.163908" lon="23.4867">
        <ele>9.71429</ele>
        <time>1970-01-01T01:00:00Z</time>
      </trkpt>
      <trkpt lat="39.163856" lon="23.486788">
        <ele>9.625</ele>
        <time>1970-01-01T01:00:00Z</time>
      </trkpt>
      <trkpt lat="39.163803" lon="23.486874">
        <ele>9.55556</ele>
        <time>1970-01-01T01:00:00Z</time>
      </trkpt>
      <trkpt lat="39.163807" lon="23.486988">
        <ele>9.4</ele>
        <time>1970-01-01T01:00:00Z</time>
      </trkpt>
      <trkpt lat="39.163783" lon="23.487096">
        <ele>9.27273</ele>
        <time>1970-01-01T01:00:00Z</time>
      </trkpt>
      <trkpt lat="39.16375" lon="23.487196">
        <ele>9.18182</ele>
        <time>1970-01-01T01:00:00Z</time>
      </trkpt>
      <trkpt lat="39.163742" lon="23.487305">
        <ele>9.09091</ele>
        <time>1970-01-01T01:00:00Z</time>
      </trkpt>
      <trkpt lat="39.163707" lon="23.487403">
        <ele>9</ele>
        <time>1970-01-01T01:00:00Z</time>
      </trkpt>
      <trkpt lat="39.163649" lon="23.487487">
        <ele>8.90909</ele>
        <time>1970-01-01T01:00:00Z</time>
      </trkpt>
      <trkpt lat="39.163666" lon="23.487597">
        <ele>8.81818</ele>
        <time>1970-01-01T01:00:00Z</time>
      </trkpt>
      <trkpt lat="39.163619" lon="23.487693">
        <ele>8.81818</ele>
        <time>1970-01-01T01:00:00Z</time>
      </trkpt>
      <trkpt lat="39.163572" lon="23.48778">
        <ele>8.81818</ele>
        <time>1970-01-01T01:00:00Z</time>
      </trkpt>
      <trkpt lat="39.163577" lon="23.48789">
        <ele>8.8</ele>
        <time>1970-01-01T01:00:00Z</time>
      </trkpt>
      <trkpt lat="39.163533" lon="23.487982">
        <ele>8.77778</ele>
        <time>1970-01-01T01:00:00Z</time>
      </trkpt>
      <trkpt lat="39.163567" lon="23.488076">
        <ele>8.875</ele>
        <time>1970-01-01T01:00:00Z</time>
      </trkpt>
      <trkpt lat="39.163516" lon="23.488159">
        <ele>9</ele>
        <time>1970-01-01T01:00:00Z</time>
      </trkpt>
      <trkpt lat="39.163529" lon="23.488173">
        <ele>9</ele>
        <time>1970-01-01T01:00:00Z</time>
      </trkpt>
      <trkpt lat="39.163606" lon="23.488184">
        <ele>9</ele>
        <time>1970-01-01T01:00:00Z</time>
      </trkpt>
      <trkpt lat="39.163699" lon="23.488209">
        <ele>9</ele>
        <time>1970-01-01T01:00:00Z</time>
      </trkpt>
      <trkpt lat="39.16379" lon="23.488197">
        <ele>9</ele>
        <time>1970-01-01T01:00:00Z</time>
      </trkpt>
      <trkpt lat="39.163785" lon="23.4882">
        <ele>9</ele>
        <time>1970-01-01T01:00:00Z</time>
      </trkpt>
      <trkpt lat="39.163872" lon="23.488205">
        <ele>8.8</ele>
        <time>1970-01-01T01:00:00Z</time>
      </trkpt>
      <trkpt lat="39.163952" lon="23.488229">
        <ele>8.8</ele>
        <time>1970-01-01T01:00:00Z</time>
      </trkpt>
      <trkpt lat="39.164025" lon="23.488277">
        <ele>8.8</ele>
        <time>1970-01-01T01:00:00Z</time>
      </trkpt>
      <trkpt lat="39.164055" lon="23.488291">
        <ele>8.8</ele>
        <time>1970-01-01T01:00:00Z</time>
      </trkpt>
      <trkpt lat="39.164109" lon="23.4883">
        <ele>7.57143</ele>
        <time>1970-01-01T01:00:00Z</time>
      </trkpt>
      <trkpt lat="39.164199" lon="23.488302">
        <ele>7.5</ele>
        <time>1970-01-01T01:00:00Z</time>
      </trkpt>
      <trkpt lat="39.164289" lon="23.488327">
        <ele>7.44444</ele>
        <time>1970-01-01T01:00:00Z</time>
      </trkpt>
      <trkpt lat="39.164371" lon="23.488308">
        <ele>7.4</ele>
        <time>1970-01-01T01:00:00Z</time>
      </trkpt>
      <trkpt lat="39.164455" lon="23.488294">
        <ele>7.36364</ele>
        <time>1970-01-01T01:00:00Z</time>
      </trkpt>
      <trkpt lat="39.164543" lon="23.488301">
        <ele>7.27273</ele>
        <time>1970-01-01T01:00:00Z</time>
      </trkpt>
      <trkpt lat="39.164615" lon="23.488248">
        <ele>7.18182</ele>
        <time>1970-01-01T01:00:00Z</time>
      </trkpt>
      <trkpt lat="39.164704" lon="23.488215">
        <ele>7.09091</ele>
        <time>1970-01-01T01:00:00Z</time>
      </trkpt>
      <trkpt lat="39.16479" lon="23.488214">
        <ele>7</ele>
        <time>1970-01-01T01:00:00Z</time>
      </trkpt>
      <trkpt lat="39.164873" lon="23.488205">
        <ele>7</ele>
        <time>1970-01-01T01:00:00Z</time>
      </trkpt>
      <trkpt lat="39.164947" lon="23.488164">
        <ele>7.09091</ele>
        <time>1970-01-01T01:00:00Z</time>
      </trkpt>
      <trkpt lat="39.16503" lon="23.48816">
        <ele>7.18182</ele>
        <time>1970-01-01T01:00:00Z</time>
      </trkpt>
      <trkpt lat="39.165112" lon="23.488131">
        <ele>7.36364</ele>
        <time>1970-01-01T01:00:00Z</time>
      </trkpt>
      <trkpt lat="39.165193" lon="23.488103">
        <ele>7.54545</ele>
        <time>1970-01-01T01:00:00Z</time>
      </trkpt>
      <trkpt lat="39.165238" lon="23.488016">
        <ele>7.6</ele>
        <time>1970-01-01T01:00:00Z</time>
      </trkpt>
      <trkpt lat="39.165317" lon="23.487977">
        <ele>7.66667</ele>
        <time>1970-01-01T01:00:00Z</time>
      </trkpt>
      <trkpt lat="39.165407" lon="23.487941">
        <ele>7.75</ele>
        <time>1970-01-01T01:00:00Z</time>
      </trkpt>
      <trkpt lat="39.165488" lon="23.487922">
        <ele>7.85714</ele>
        <time>1970-01-01T01:00:00Z</time>
      </trkpt>
      <trkpt lat="39.165531" lon="23.4879">
        <ele>8</ele>
        <time>1970-01-01T01:00:00Z</time>
      </trkpt>
      <trkpt lat="39.165566" lon="23.487882">
        <ele>9</ele>
        <time>1970-01-01T01:00:00Z</time>
      </trkpt>
      <trkpt lat="39.165638" lon="23.487936">
        <ele>9</ele>
        <time>1970-01-01T01:00:00Z</time>
      </trkpt>
      <trkpt lat="39.165679" lon="23.488032">
        <ele>9</ele>
        <time>1970-01-01T01:00:00Z</time>
      </trkpt>
      <trkpt lat="39.165724" lon="23.488121">
        <ele>9</ele>
        <time>1970-01-01T01:00:00Z</time>
      </trkpt>
      <trkpt lat="39.165773" lon="23.488215">
        <ele>9</ele>
        <time>1970-01-01T01:00:00Z</time>
      </trkpt>
      <trkpt lat="39.165784" lon="23.488327">
        <ele>9.09091</ele>
        <time>1970-01-01T01:00:00Z</time>
      </trkpt>
      <trkpt lat="39.165809" lon="23.488428">
        <ele>9.18182</ele>
        <time>1970-01-01T01:00:00Z</time>
      </trkpt>
      <trkpt lat="39.165857" lon="23.488517">
        <ele>9.45455</ele>
        <time>1970-01-01T01:00:00Z</time>
      </trkpt>
      <trkpt lat="39.165853" lon="23.488626">
        <ele>9.81818</ele>
        <time>1970-01-01T01:00:00Z</time>
      </trkpt>
      <trkpt lat="39.165885" lon="23.488723">
        <ele>10.2727</ele>
        <time>1970-01-01T01:00:00Z</time>
      </trkpt>
      <trkpt lat="39.165924" lon="23.48882">
        <ele>10.4</ele>
        <time>1970-01-01T01:00:00Z</time>
      </trkpt>
      <trkpt lat="39.165904" lon="23.488928">
        <ele>10.5556</ele>
        <time>1970-01-01T01:00:00Z</time>
      </trkpt>
      <trkpt lat="39.165931" lon="23.489036">
        <ele>10.75</ele>
        <time>1970-01-01T01:00:00Z</time>
      </trkpt>
      <trkpt lat="39.165996" lon="23.489107">
        <ele>11</ele>
        <time>1970-01-01T01:00:00Z</time>
      </trkpt>
      <trkpt lat="39.166031" lon="23.489137">
        <ele>11.3333</ele>
        <time>1970-01-01T01:00:00Z</time>
      </trkpt>
      <trkpt lat="39.166058" lon="23.4892">
        <ele>16.5</ele>
        <time>1970-01-01T01:00:00Z</time>
      </trkpt>
      <trkpt lat="39.166095" lon="23.489296">
        <ele>16.5</ele>
        <time>1970-01-01T01:00:00Z</time>
      </trkpt>
      <trkpt lat="39.166086" lon="23.489308">
        <ele>16.5</ele>
        <time>1970-01-01T01:00:00Z</time>
      </trkpt>
      <trkpt lat="39.166157" lon="23.489364">
        <ele>20.3333</ele>
        <time>1970-01-01T01:00:00Z</time>
      </trkpt>
      <trkpt lat="39.166131" lon="23.489434">
        <ele>20.3333</ele>
        <time>1970-01-01T01:00:00Z</time>
      </trkpt>
      <trkpt lat="39.166149" lon="23.489482">
        <ele>22.3333</ele>
        <time>1970-01-01T01:00:00Z</time>
      </trkpt>
      <trkpt lat="39.166148" lon="23.489502">
        <ele>22.3333</ele>
        <time>1970-01-01T01:00:00Z</time>
      </trkpt>
      <trkpt lat="39.166178" lon="23.489588">
        <ele>25</ele>
        <time>1970-01-01T01:00:00Z</time>
      </trkpt>
      <trkpt lat="39.166194" lon="23.489593">
        <ele>25</ele>
        <time>1970-01-01T01:00:00Z</time>
      </trkpt>
      <trkpt lat="39.16624" lon="23.489657">
        <ele>27</ele>
        <time>1970-01-01T01:00:00Z</time>
      </trkpt>
      <trkpt lat="39.166239" lon="23.489666">
        <ele>27</ele>
        <time>1970-01-01T01:00:00Z</time>
      </trkpt>
      <trkpt lat="39.166161" lon="23.489618">
        <ele>25</ele>
        <time>1970-01-01T01:00:00Z</time>
      </trkpt>
      <trkpt lat="39.166158" lon="23.489621">
        <ele>25</ele>
        <time>1970-01-01T01:00:00Z</time>
      </trkpt>
      <trkpt lat="39.166216" lon="23.489709">
        <ele>29.25</ele>
        <time>1970-01-01T01:00:00Z</time>
      </trkpt>
      <trkpt lat="39.166258" lon="23.489804">
        <ele>29.25</ele>
        <time>1970-01-01T01:00:00Z</time>
      </trkpt>
      <trkpt lat="39.166288" lon="23.489831">
        <ele>29.25</ele>
        <time>1970-01-01T01:00:00Z</time>
      </trkpt>
      <trkpt lat="39.166276" lon="23.489913">
        <ele>31.6667</ele>
        <time>1970-01-01T01:00:00Z</time>
      </trkpt>
      <trkpt lat="39.166238" lon="23.490011">
        <ele>31.6667</ele>
        <time>1970-01-01T01:00:00Z</time>
      </trkpt>
      <trkpt lat="39.166217" lon="23.490114">
        <ele>31.6667</ele>
        <time>1970-01-01T01:00:00Z</time>
      </trkpt>
      <trkpt lat="39.166182" lon="23.490213">
        <ele>31.6667</ele>
        <time>1970-01-01T01:00:00Z</time>
      </trkpt>
      <trkpt lat="39.16618" lon="23.490207">
        <ele>31.6667</ele>
        <time>1970-01-01T01:00:00Z</time>
      </trkpt>
      <trkpt lat="39.166234" lon="23.490309">
        <ele>33</ele>
        <time>1970-01-01T01:00:00Z</time>
      </trkpt>
      <trkpt lat="39.166251" lon="23.490327">
        <ele>33</ele>
        <time>1970-01-01T01:00:00Z</time>
      </trkpt>
      <trkpt lat="39.166309" lon="23.490261">
        <ele>34</ele>
        <time>1970-01-01T01:00:00Z</time>
      </trkpt>
      <trkpt lat="39.16632" lon="23.490153">
        <ele>34</ele>
        <time>1970-01-01T01:00:00Z</time>
      </trkpt>
      <trkpt lat="39.166339" lon="23.490136">
        <ele>34</ele>
        <time>1970-01-01T01:00:00Z</time>
      </trkpt>
      <trkpt lat="39.166401" lon="23.490144">
        <ele>35.4286</ele>
        <time>1970-01-01T01:00:00Z</time>
      </trkpt>
      <trkpt lat="39.166488" lon="23.490108">
        <ele>35.625</ele>
        <time>1970-01-01T01:00:00Z</time>
      </trkpt>
      <trkpt lat="39.166576" lon="23.490091">
        <ele>36</ele>
        <time>1970-01-01T01:00:00Z</time>
      </trkpt>
      <trkpt lat="39.166583" lon="23.489981">
        <ele>36.4</ele>
        <time>1970-01-01T01:00:00Z</time>
      </trkpt>
      <trkpt lat="39.166628" lon="23.489887">
        <ele>36.4</ele>
        <time>1970-01-01T01:00:00Z</time>
      </trkpt>
      <trkpt lat="39.166699" lon="23.489815">
        <ele>36.5556</ele>
        <time>1970-01-01T01:00:00Z</time>
      </trkpt>
      <trkpt lat="39.166788" lon="23.489811">
        <ele>36.75</ele>
        <time>1970-01-01T01:00:00Z</time>
      </trkpt>
      <trkpt lat="39.166869" lon="23.489812">
        <ele>37</ele>
        <time>1970-01-01T01:00:00Z</time>
      </trkpt>
      <trkpt lat="39.166936" lon="23.489854">
        <ele>37.1667</ele>
        <time>1970-01-01T01:00:00Z</time>
      </trkpt>
      <trkpt lat="39.166953" lon="23.489818">
        <ele>41</ele>
        <time>1970-01-01T01:00:00Z</time>
      </trkpt>
      <trkpt lat="39.166998" lon="23.489723">
        <ele>41</ele>
        <time>1970-01-01T01:00:00Z</time>
      </trkpt>
      <trkpt lat="39.167025" lon="23.489711">
        <ele>41</ele>
        <time>1970-01-01T01:00:00Z</time>
      </trkpt>
      <trkpt lat="39.167078" lon="23.489701">
        <ele>42</ele>
        <time>1970-01-01T01:00:00Z</time>
      </trkpt>
      <trkpt lat="39.167093" lon="23.48968">
        <ele>42</ele>
        <time>1970-01-01T01:00:00Z</time>
      </trkpt>
      <trkpt lat="39.167149" lon="23.489759">
        <ele>44.8333</ele>
        <time>1970-01-01T01:00:00Z</time>
      </trkpt>
      <trkpt lat="39.167149" lon="23.489872">
        <ele>44.8333</ele>
        <time>1970-01-01T01:00:00Z</time>
      </trkpt>
      <trkpt lat="39.16722" lon="23.489936">
        <ele>44.8333</ele>
        <time>1970-01-01T01:00:00Z</time>
      </trkpt>
      <trkpt lat="39.167273" lon="23.490028">
        <ele>44.8333</ele>
        <time>1970-01-01T01:00:00Z</time>
      </trkpt>
      <trkpt lat="39.16729" lon="23.49005">
        <ele>44.8333</ele>
        <time>1970-01-01T01:00:00Z</time>
      </trkpt>
      <trkpt lat="39.167303" lon="23.490127">
        <ele>44</ele>
        <time>1970-01-01T01:00:00Z</time>
      </trkpt>
      <trkpt lat="39.167314" lon="23.490139">
        <ele>44</ele>
        <time>1970-01-01T01:00:00Z</time>
      </trkpt>
      <trkpt lat="39.167254" lon="23.490032">
        <ele>45.3333</ele>
        <time>1970-01-01T01:00:00Z</time>
      </trkpt>
      <trkpt lat="39.16722" lon="23.490004">
        <ele>45.3333</ele>
        <time>1970-01-01T01:00:00Z</time>
      </trkpt>
      <trkpt lat="39.167211" lon="23.489939">
        <ele>44.6</ele>
        <time>1970-01-01T01:00:00Z</time>
      </trkpt>
      <trkpt lat="39.167164" lon="23.489844">
        <ele>44.6</ele>
        <time>1970-01-01T01:00:00Z</time>
      </trkpt>
      <trkpt lat="39.167142" lon="23.48974">
        <ele>44.6</ele>
        <time>1970-01-01T01:00:00Z</time>
      </trkpt>
      <trkpt lat="39.167118" lon="23.489694">
        <ele>44.6</ele>
        <time>1970-01-01T01:00:00Z</time>
      </trkpt>
      <trkpt lat="39.167076" lon="23.489674">
        <ele>41.6667</ele>
        <time>1970-01-01T01:00:00Z</time>
      </trkpt>
      <trkpt lat="39.167067" lon="23.489652">
        <ele>41.6667</ele>
        <time>1970-01-01T01:00:00Z</time>
      </trkpt>
      <trkpt lat="39.166997" lon="23.489706">
        <ele>40</ele>
        <time>1970-01-01T01:00:00Z</time>
      </trkpt>
      <trkpt lat="39.166912" lon="23.489752">
        <ele>40</ele>
        <time>1970-01-01T01:00:00Z</time>
      </trkpt>
      <trkpt lat="39.166893" lon="23.48977">
        <ele>40</ele>
        <time>1970-01-01T01:00:00Z</time>
      </trkpt>
      <trkpt lat="39.166839" lon="23.489821">
        <ele>37.5</ele>
        <time>1970-01-01T01:00:00Z</time>
      </trkpt>
      <trkpt lat="39.16676" lon="23.489857">
        <ele>37.5</ele>
        <time>1970-01-01T01:00:00Z</time>
      </trkpt>
      <trkpt lat="39.166739" lon="23.489873">
        <ele>37.5</ele>
        <time>1970-01-01T01:00:00Z</time>
      </trkpt>
      <trkpt lat="39.166676" lon="23.48988">
        <ele>36</ele>
        <time>1970-01-01T01:00:00Z</time>
      </trkpt>
      <trkpt lat="39.16663" lon="23.489976">
        <ele>36</ele>
        <time>1970-01-01T01:00:00Z</time>
      </trkpt>
      <trkpt lat="39.16662" lon="23.489998">
        <ele>36</ele>
        <time>1970-01-01T01:00:00Z</time>
      </trkpt>
      <trkpt lat="39.166599" lon="23.490077">
        <ele>35.1667</ele>
        <time>1970-01-01T01:00:00Z</time>
      </trkpt>
      <trkpt lat="39.166531" lon="23.490154">
        <ele>35.1667</ele>
        <time>1970-01-01T01:00:00Z</time>
      </trkpt>
      <trkpt lat="39.166449" lon="23.490223">
        <ele>35.1667</ele>
        <time>1970-01-01T01:00:00Z</time>
      </trkpt>
      <trkpt lat="39.166367" lon="23.490211">
        <ele>35.1667</ele>
        <time>1970-01-01T01:00:00Z</time>
      </trkpt>
      <trkpt lat="39.166333" lon="23.490296">
        <ele>35.1667</ele>
        <time>1970-01-01T01:00:00Z</time>
      </trkpt>
      <trkpt lat="39.166327" lon="23.490316">
        <ele>33.6667</ele>
        <time>1970-01-01T01:00:00Z</time>
      </trkpt>
      <trkpt lat="39.166297" lon="23.490339">
        <ele>33.6667</ele>
        <time>1970-01-01T01:00:00Z</time>
      </trkpt>
      <trkpt lat="39.166262" lon="23.490379">
        <ele>31</ele>
        <time>1970-01-01T01:00:00Z</time>
      </trkpt>
      <trkpt lat="39.166175" lon="23.490392">
        <ele>31</ele>
        <time>1970-01-01T01:00:00Z</time>
      </trkpt>
      <trkpt lat="39.166092" lon="23.490406">
        <ele>31</ele>
        <time>1970-01-01T01:00:00Z</time>
      </trkpt>
      <trkpt lat="39.166089" lon="23.490424">
        <ele>31</ele>
        <time>1970-01-01T01:00:00Z</time>
      </trkpt>
      <trkpt lat="39.166046" lon="23.490499">
        <ele>29.6</ele>
        <time>1970-01-01T01:00:00Z</time>
      </trkpt>
      <trkpt lat="39.165959" lon="23.490468">
        <ele>29.6</ele>
        <time>1970-01-01T01:00:00Z</time>
      </trkpt>
      <trkpt lat="39.165894" lon="23.490401">
        <ele>29.6</ele>
        <time>1970-01-01T01:00:00Z</time>
      </trkpt>
      <trkpt lat="39.165851" lon="23.490369">
        <ele>29.6</ele>
        <time>1970-01-01T01:00:00Z</time>
      </trkpt>
      <trkpt lat="39.165834" lon="23.490322">
        <ele>27.5</ele>
        <time>1970-01-01T01:00:00Z</time>
      </trkpt>
      <trkpt lat="39.165802" lon="23.490222">
        <ele>27.5</ele>
        <time>1970-01-01T01:00:00Z</time>
      </trkpt>
      <trkpt lat="39.16578" lon="23.490193">
        <ele>27.5</ele>
        <time>1970-01-01T01:00:00Z</time>
      </trkpt>
      <trkpt lat="39.165721" lon="23.490198">
        <ele>23.4286</ele>
        <time>1970-01-01T01:00:00Z</time>
      </trkpt>
      <trkpt lat="39.165642" lon="23.490223">
        <ele>23</ele>
        <time>1970-01-01T01:00:00Z</time>
      </trkpt>
      <trkpt lat="39.165557" lon="23.490204">
        <ele>23</ele>
        <time>1970-01-01T01:00:00Z</time>
      </trkpt>
      <trkpt lat="39.165478" lon="23.490182">
        <ele>23</ele>
        <time>1970-01-01T01:00:00Z</time>
      </trkpt>
      <trkpt lat="39.165395" lon="23.490189">
        <ele>23</ele>
        <time>1970-01-01T01:00:00Z</time>
      </trkpt>
      <trkpt lat="39.165322" lon="23.490245">
        <ele>22.5714</ele>
        <time>1970-01-01T01:00:00Z</time>
      </trkpt>
      <trkpt lat="39.165267" lon="23.490295">
        <ele>22</ele>
        <time>1970-01-01T01:00:00Z</time>
      </trkpt>
      <trkpt lat="39.165246" lon="23.490312">
        <ele>18.8</ele>
        <time>1970-01-01T01:00:00Z</time>
      </trkpt>
      <trkpt lat="39.165155" lon="23.490315">
        <ele>18.8</ele>
        <time>1970-01-01T01:00:00Z</time>
      </trkpt>
      <trkpt lat="39.165071" lon="23.49028">
        <ele>18.8</ele>
        <time>1970-01-01T01:00:00Z</time>
      </trkpt>
      <trkpt lat="39.165026" lon="23.490283">
        <ele>18.8</ele>
        <time>1970-01-01T01:00:00Z</time>
      </trkpt>
      <trkpt lat="39.164992" lon="23.49032">
        <ele>18</ele>
        <time>1970-01-01T01:00:00Z</time>
      </trkpt>
      <trkpt lat="39.164917" lon="23.490399">
        <ele>18</ele>
        <time>1970-01-01T01:00:00Z</time>
      </trkpt>
      <trkpt lat="39.164845" lon="23.490456">
        <ele>18</ele>
        <time>1970-01-01T01:00:00Z</time>
      </trkpt>
      <trkpt lat="39.164834" lon="23.490349">
        <ele>18</ele>
        <time>1970-01-01T01:00:00Z</time>
      </trkpt>
      <trkpt lat="39.164763" lon="23.490296">
        <ele>18</ele>
        <time>1970-01-01T01:00:00Z</time>
      </trkpt>
      <trkpt lat="39.164728" lon="23.490285">
        <ele>18</ele>
        <time>1970-01-01T01:00:00Z</time>
      </trkpt>
      <trkpt lat="39.164703" lon="23.490221">
        <ele>12.7143</ele>
        <time>1970-01-01T01:00:00Z</time>
      </trkpt>
      <trkpt lat="39.164639" lon="23.490153">
        <ele>12.5</ele>
        <time>1970-01-01T01:00:00Z</time>
      </trkpt>
      <trkpt lat="39.164591" lon="23.490061">
        <ele>12.3333</ele>
        <time>1970-01-01T01:00:00Z</time>
      </trkpt>
      <trkpt lat="39.164562" lon="23.489961">
        <ele>12.2</ele>
        <time>1970-01-01T01:00:00Z</time>
      </trkpt>
      <trkpt lat="39.164512" lon="23.489872">
        <ele>12.0909</ele>
        <time>1970-01-01T01:00:00Z</time>
      </trkpt>
      <trkpt lat="39.164457" lon="23.489783">
        <ele>11.7273</ele>
        <time>1970-01-01T01:00:00Z</time>
      </trkpt>
      <trkpt lat="39.164376" lon="23.489762">
        <ele>11.3636</ele>
        <time>1970-01-01T01:00:00Z</time>
      </trkpt>
      <trkpt lat="39.164291" lon="23.489735">
        <ele>11.0909</ele>
        <time>1970-01-01T01:00:00Z</time>
      </trkpt>
      <trkpt lat="39.164213" lon="23.489694">
        <ele>10.8182</ele>
        <time>1970-01-01T01:00:00Z</time>
      </trkpt>
      <trkpt lat="39.164136" lon="23.489764">
        <ele>10.7273</ele>
        <time>1970-01-01T01:00:00Z</time>
      </trkpt>
      <trkpt lat="39.164039" lon="23.48977">
        <ele>10.6364</ele>
        <time>1970-01-01T01:00:00Z</time>
      </trkpt>
      <trkpt lat="39.163959" lon="23.489756">
        <ele>10.7</ele>
        <time>1970-01-01T01:00:00Z</time>
      </trkpt>
      <trkpt lat="39.163871" lon="23.48977">
        <ele>10.6667</ele>
        <time>1970-01-01T01:00:00Z</time>
      </trkpt>
      <trkpt lat="39.163789" lon="23.489746">
        <ele>10.625</ele>
        <time>1970-01-01T01:00:00Z</time>
      </trkpt>
      <trkpt lat="39.163716" lon="23.4898">
        <ele>10.5714</ele>
        <time>1970-01-01T01:00:00Z</time>
      </trkpt>
      <trkpt lat="39.163684" lon="23.489787">
        <ele>10.5</ele>
        <time>1970-01-01T01:00:00Z</time>
      </trkpt>
      <trkpt lat="39.163641" lon="23.489849">
        <ele>9</ele>
        <time>1970-01-01T01:00:00Z</time>
      </trkpt>
      <trkpt lat="39.163662" lon="23.489903">
        <ele>9</ele>
        <time>1970-01-01T01:00:00Z</time>
      </trkpt>
      <trkpt lat="39.163607" lon="23.489747">
        <ele>9</ele>
        <time>1970-01-01T01:00:00Z</time>
      </trkpt>
      <trkpt lat="39.163548" lon="23.489711">
        <ele>9</ele>
        <time>1970-01-01T01:00:00Z</time>
      </trkpt>
      <trkpt lat="39.163538" lon="23.489686">
        <ele>8.5</ele>
        <time>1970-01-01T01:00:00Z</time>
      </trkpt>
      <trkpt lat="39.163492" lon="23.489592">
        <ele>8.5</ele>
        <time>1970-01-01T01:00:00Z</time>
      </trkpt>
      <trkpt lat="39.163469" lon="23.489492">
        <ele>8.5</ele>
        <time>1970-01-01T01:00:00Z</time>
      </trkpt>
      <trkpt lat="39.163389" lon="23.489466">
        <ele>8.5</ele>
        <time>1970-01-01T01:00:00Z</time>
      </trkpt>
      <trkpt lat="39.163352" lon="23.489446">
        <ele>8.5</ele>
        <time>1970-01-01T01:00:00Z</time>
      </trkpt>
      <trkpt lat="39.163307" lon="23.489484">
        <ele>7.85714</ele>
        <time>1970-01-01T01:00:00Z</time>
      </trkpt>
      <trkpt lat="39.163258" lon="23.489582">
        <ele>7.75</ele>
        <time>1970-01-01T01:00:00Z</time>
      </trkpt>
      <trkpt lat="39.16322" lon="23.489675">
        <ele>7.66667</ele>
        <time>1970-01-01T01:00:00Z</time>
      </trkpt>
      <trkpt lat="39.163163" lon="23.489751">
        <ele>7.6</ele>
        <time>1970-01-01T01:00:00Z</time>
      </trkpt>
      <trkpt lat="39.163082" lon="23.489814">
        <ele>7.54545</ele>
        <time>1970-01-01T01:00:00Z</time>
      </trkpt>
      <trkpt lat="39.163027" lon="23.489902">
        <ele>7.45455</ele>
        <time>1970-01-01T01:00:00Z</time>
      </trkpt>
      <trkpt lat="39.162984" lon="23.489993">
        <ele>7.4</ele>
        <time>1970-01-01T01:00:00Z</time>
      </trkpt>
      <trkpt lat="39.162968" lon="23.490102">
        <ele>7.33333</ele>
        <time>1970-01-01T01:00:00Z</time>
      </trkpt>
      <trkpt lat="39.162885" lon="23.490078">
        <ele>7.25</ele>
        <time>1970-01-01T01:00:00Z</time>
      </trkpt>
      <trkpt lat="39.162858" lon="23.490178">
        <ele>7.14286</ele>
        <time>1970-01-01T01:00:00Z</time>
      </trkpt>
      <trkpt lat="39.16284" lon="23.490178">
        <ele>7</ele>
        <time>1970-01-01T01:00:00Z</time>
      </trkpt>
      <trkpt lat="39.162839" lon="23.490285">
        <ele>6</ele>
        <time>1970-01-01T01:00:00Z</time>
      </trkpt>
      <trkpt lat="39.162784" lon="23.490369">
        <ele>6</ele>
        <time>1970-01-01T01:00:00Z</time>
      </trkpt>
      <trkpt lat="39.162792" lon="23.490477">
        <ele>6</ele>
        <time>1970-01-01T01:00:00Z</time>
      </trkpt>
      <trkpt lat="39.162777" lon="23.490536">
        <ele>6</ele>
        <time>1970-01-01T01:00:00Z</time>
      </trkpt>
      <trkpt lat="39.162875" lon="23.490501">
        <ele>6</ele>
        <time>1970-01-01T01:00:00Z</time>
      </trkpt>
      <trkpt lat="39.162886" lon="23.490564">
        <ele>6</ele>
        <time>1970-01-01T01:00:00Z</time>
      </trkpt>
      <trkpt lat="39.162949" lon="23.490447">
        <ele>7</ele>
        <time>1970-01-01T01:00:00Z</time>
      </trkpt>
      <trkpt lat="39.16298" lon="23.49035">
        <ele>7</ele>
        <time>1970-01-01T01:00:00Z</time>
      </trkpt>
      <trkpt lat="39.163054" lon="23.490304">
        <ele>7</ele>
        <time>1970-01-01T01:00:00Z</time>
      </trkpt>
      <trkpt lat="39.163101" lon="23.490246">
        <ele>7</ele>
        <time>1970-01-01T01:00:00Z</time>
      </trkpt>
      <trkpt lat="39.163097" lon="23.490204">
        <ele>7</ele>
        <time>1970-01-01T01:00:00Z</time>
      </trkpt>
      <trkpt lat="39.163084" lon="23.490214">
        <ele>7</ele>
        <time>1970-01-01T01:00:00Z</time>
      </trkpt>
      <trkpt lat="39.163018" lon="23.490252">
        <ele>7</ele>
        <time>1970-01-01T01:00:00Z</time>
      </trkpt>
      <trkpt lat="39.163004" lon="23.490209">
        <ele>7</ele>
        <time>1970-01-01T01:00:00Z</time>
      </trkpt>
      <trkpt lat="39.162939" lon="23.490219">
        <ele>7</ele>
        <time>1970-01-01T01:00:00Z</time>
      </trkpt>
      <trkpt lat="39.162928" lon="23.490214">
        <ele>7</ele>
        <time>1970-01-01T01:00:00Z</time>
      </trkpt>
      <trkpt lat="39.163018" lon="23.490266">
        <ele>7</ele>
        <time>1970-01-01T01:00:00Z</time>
      </trkpt>
      <trkpt lat="39.162995" lon="23.490251">
        <ele>7</ele>
        <time>1970-01-01T01:00:00Z</time>
      </trkpt>
      <trkpt lat="39.162958" lon="23.490196">
        <ele>7</ele>
        <time>1970-01-01T01:00:00Z</time>
      </trkpt>
      <trkpt lat="39.162955" lon="23.490195">
        <ele>7</ele>
        <time>1970-01-01T01:00:00Z</time>
      </trkpt>
      <trkpt lat="39.163017" lon="23.490121">
        <ele>7.42857</ele>
        <time>1970-01-01T01:00:00Z</time>
      </trkpt>
      <trkpt lat="39.163011" lon="23.490017">
        <ele>7.5</ele>
        <time>1970-01-01T01:00:00Z</time>
      </trkpt>
      <trkpt lat="39.163072" lon="23.489935">
        <ele>7.55556</ele>
        <time>1970-01-01T01:00:00Z</time>
      </trkpt>
      <trkpt lat="39.163048" lon="23.489832">
        <ele>7.6</ele>
        <time>1970-01-01T01:00:00Z</time>
      </trkpt>
      <trkpt lat="39.163096" lon="23.489738">
        <ele>7.63636</ele>
        <time>1970-01-01T01:00:00Z</time>
      </trkpt>
      <trkpt lat="39.163154" lon="23.489665">
        <ele>7.72727</ele>
        <time>1970-01-01T01:00:00Z</time>
      </trkpt>
      <trkpt lat="39.16321" lon="23.489587">
        <ele>7.8</ele>
        <time>1970-01-01T01:00:00Z</time>
      </trkpt>
      <trkpt lat="39.163248" lon="23.489486">
        <ele>7.88889</ele>
        <time>1970-01-01T01:00:00Z</time>
      </trkpt>
      <trkpt lat="39.163297" lon="23.489399">
        <ele>8</ele>
        <time>1970-01-01T01:00:00Z</time>
      </trkpt>
      <trkpt lat="39.163335" lon="23.4893">
        <ele>8</ele>
        <time>1970-01-01T01:00:00Z</time>
      </trkpt>
      <trkpt lat="39.163332" lon="23.489293">
        <ele>8</ele>
        <time>1970-01-01T01:00:00Z</time>
      </trkpt>
      <trkpt lat="39.163365" lon="23.489201">
        <ele>8</ele>
        <time>1970-01-01T01:00:00Z</time>
      </trkpt>
      <trkpt lat="39.163407" lon="23.489107">
        <ele>8</ele>
        <time>1970-01-01T01:00:00Z</time>
      </trkpt>
      <trkpt lat="39.163414" lon="23.489064">
        <ele>8</ele>
        <time>1970-01-01T01:00:00Z</time>
      </trkpt>
      <trkpt lat="39.163406" lon="23.488995">
        <ele>8</ele>
        <time>1970-01-01T01:00:00Z</time>
      </trkpt>
      <trkpt lat="39.163417" lon="23.488885">
        <ele>8</ele>
        <time>1970-01-01T01:00:00Z</time>
      </trkpt>
      <trkpt lat="39.163428" lon="23.488773">
        <ele>8</ele>
        <time>1970-01-01T01:00:00Z</time>
      </trkpt>
      <trkpt lat="39.163417" lon="23.488676">
        <ele>8</ele>
        <time>1970-01-01T01:00:00Z</time>
      </trkpt>
      <trkpt lat="39.163404" lon="23.488665">
        <ele>8</ele>
        <time>1970-01-01T01:00:00Z</time>
      </trkpt>
      <trkpt lat="39.163388" lon="23.488584">
        <ele>8</ele>
        <time>1970-01-01T01:00:00Z</time>
      </trkpt>
    </trkseg>
  </trk>
</gpx>